| time (UTC) | temp C | wind direction | speed KPH | gust KPH | rain 1hr cm | rain 24hr cm | rain mn cm | humidity % | barometer mb |
| 20260508023322 | 6 | 152 | 1.6 | 3.2 | 0.00 | 0.05 | 0.05 | 77 | 1016.1 |
| 20260508022819 | 6 | 224 | 0.0 | 3.2 | 0.00 | 0.05 | 0.05 | 76 | 1016.0 |
| 20260508022315 | 6 | 119 | 3.2 | 3.2 | 0.00 | 0.05 | 0.05 | 76 | 1015.7 |
| 20260508021812 | 6 | 135 | 0.0 | 3.2 | 0.00 | 0.05 | 0.05 | 76 | 1015.8 |
| 20260508021308 | 7 | 157 | 0.0 | 3.2 | 0.00 | 0.05 | 0.05 | 75 | 1015.4 |
| 20260508020804 | 7 | 228 | 3.2 | 3.2 | 0.00 | 0.05 | 0.05 | 74 | 1015.6 |
| 20260508020302 | 7 | 153 | 1.6 | 4.8 | 0.00 | 0.05 | 0.05 | 75 | 1015.4 |
| 20260508015759 | 7 | 185 | 0.0 | 4.8 | 0.00 | 0.05 | 0.05 | 75 | 1015.5 |
| 20260508015256 | 7 | 95 | 1.6 | 3.2 | 0.00 | 0.05 | 0.05 | 74 | 1015.3 |
| 20260508014753 | 7 | 205 | 0.0 | 3.2 | 0.00 | 0.05 | 0.05 | 74 | 1015.3 |
| 20260508014250 | 7 | 120 | 1.6 | 3.2 | 0.00 | 0.05 | 0.05 | 75 | 1015.3 |
| 20260508013745 | 7 | 194 | 3.2 | 4.8 | 0.00 | 0.05 | 0.05 | 73 | 1015.2 |
| 20260508013242 | 8 | 335 | 0.0 | 1.6 | 0.00 | 0.05 | 0.05 | 69 | 1015.0 |
| 20260508012740 | 8 | 53 | 0.0 | 3.2 | 0.00 | 0.05 | 0.05 | 66 | 1014.9 |
| 20260508012237 | 8 | 314 | 1.6 | 3.2 | 0.00 | 0.05 | 0.05 | 66 | 1014.9 |
| 20260508011735 | 8 | 44 | 0.0 | 1.6 | 0.00 | 0.05 | 0.05 | 64 | 1014.8 |
| 20260508011232 | 8 | 260 | 1.6 | 4.8 | 0.00 | 0.05 | 0.05 | 66 | 1014.9 |
| 20260508010728 | 8 | 54 | 1.6 | 3.2 | 0.00 | 0.05 | 0.05 | 65 | 1014.5 |
| 20260508010227 | 9 | 119 | 0.0 | 3.2 | 0.00 | 0.05 | 0.05 | 65 | 1014.7 |
| 20260508005723 | 9 | 55 | 0.0 | 0.0 | 0.00 | 0.05 | 0.05 | 63 | 1014.6 |
| 20260508005220 | 10 | 32 | 0.0 | 3.2 | 0.00 | 0.05 | 0.05 | 62 | 1014.6 |
| 20260508004716 | 10 | 41 | 1.6 | 3.2 | 0.00 | 0.05 | 0.05 | 58 | 1014.4 |
| 20260508004212 | 10 | 13 | 3.2 | 3.2 | 0.00 | 0.05 | 0.05 | 57 | 1014.3 |
| 20260508003709 | 10 | 47 | 1.6 | 3.2 | 0.00 | 0.05 | 0.05 | 54 | 1014.1 |
| 20260508003206 | 11 | 4 | 0.0 | 3.2 | 0.00 | 0.05 | 0.05 | 55 | 1014.1 |
| 20260508002703 | 11 | 345 | 3.2 | 3.2 | 0.00 | 0.05 | 0.05 | 51 | 1014.1 |
| 20260508002201 | 11 | 32 | 3.2 | 3.2 | 0.00 | 0.05 | 0.05 | 47 | 1014.1 |
| 20260508001656 | 12 | 58 | 3.2 | 4.8 | 0.00 | 0.05 | 0.05 | 46 | 1014.0 |
| 20260508001152 | 12 | 66 | 1.6 | 3.2 | 0.00 | 0.05 | 0.05 | 45 | 1013.7 |
| 20260508000648 | 12 | 271 | 3.2 | 3.2 | 0.00 | 0.05 | 0.05 | 42 | 1014.0 |
| 20260508000145 | 13 | 22 | 1.6 | 4.8 | 0.00 | 0.05 | 0.05 | 42 | 1014.1 |
| 20260507235642 | 12 | 43 | 14.5 | 16.1 | 0.00 | 0.05 | 0.05 | 41 | 1013.9 |
| 20260507235139 | 13 | 244 | 4.8 | 4.8 | 0.00 | 0.05 | 0.05 | 41 | 1013.7 |
| 20260507234636 | 13 | 19 | 3.2 | 11.3 | 0.00 | 0.05 | 0.05 | 41 | 1013.7 |
| 20260507234132 | 13 | 54 | 1.6 | 6.4 | 0.00 | 0.05 | 0.05 | 42 | 1013.6 |
| 20260507233629 | 13 | 354 | 1.6 | 8.0 | 0.00 | 0.05 | 0.05 | 41 | 1013.6 |
| 20260507233128 | 13 | 338 | 4.8 | 8.0 | 0.00 | 0.05 | 0.05 | 39 | 1013.7 |
| 20260507232625 | 13 | 5 | 4.8 | 4.8 | 0.00 | 0.05 | 0.05 | 41 | 1013.3 |
| 20260507232121 | 13 | 5 | 8.0 | 11.3 | 0.00 | 0.05 | 0.05 | 39 | 1013.4 |
| 20260507231617 | 13 | 23 | 3.2 | 9.7 | 0.00 | 0.05 | 0.05 | 43 | 1013.5 |
| 20260507231115 | 13 | 213 | 4.8 | 9.7 | 0.00 | 0.05 | 0.05 | 39 | 1013.6 |
| 20260507230611 | 13 | 339 | 3.2 | 9.7 | 0.00 | 0.05 | 0.05 | 39 | 1013.5 |
| 20260507230108 | 14 | 2 | 3.2 | 4.8 | 0.00 | 0.05 | 0.05 | 39 | 1013.3 |
| 20260507225603 | 13 | 357 | 0.0 | 9.7 | 0.00 | 0.05 | 0.05 | 40 | 1013.2 |
| 20260507225100 | 14 | 316 | 3.2 | 12.9 | 0.00 | 0.05 | 0.05 | 40 | 1013.1 |
| 20260507224555 | 13 | 23 | 12.9 | 19.3 | 0.00 | 0.05 | 0.05 | 39 | 1012.9 |
| 20260507224052 | 14 | 66 | 8.0 | 20.9 | 0.00 | 0.05 | 0.05 | 40 | 1013.2 |
| 20260507223548 | 14 | 20 | 14.5 | 16.1 | 0.00 | 0.05 | 0.05 | 39 | 1013.1 |
| 20260507223045 | 13 | 6 | 12.9 | 25.7 | 0.00 | 0.05 | 0.05 | 40 | 1012.8 |
| 20260507222542 | 14 | 234 | 3.2 | 9.7 | 0.00 | 0.05 | 0.05 | 41 | 1012.9 |
| 20260507222039 | 14 | 53 | 3.2 | 9.7 | 0.00 | 0.05 | 0.05 | 42 | 1013.1 |
| 20260507221535 | 14 | 338 | 4.8 | 19.3 | 0.00 | 0.05 | 0.05 | 39 | 1013.2 |
| 20260507221032 | 14 | 240 | 9.7 | 9.7 | 0.00 | 0.05 | 0.05 | 40 | 1012.8 |
| 20260507220529 | 14 | 6 | 4.8 | 8.0 | 0.00 | 0.05 | 0.05 | 40 | 1012.8 |
| 20260507220027 | 15 | 8 | 8.0 | 14.5 | 0.00 | 0.05 | 0.05 | 40 | 1012.7 |
| 20260507215523 | 15 | 300 | 3.2 | 9.7 | 0.00 | 0.05 | 0.05 | 41 | 1012.7 |
| 20260507215021 | 15 | 349 | 9.7 | 16.1 | 0.00 | 0.05 | 0.05 | 41 | 1012.6 |
| 20260507214518 | 15 | 316 | 4.8 | 17.7 | 0.00 | 0.05 | 0.05 | 37 | 1012.5 |
| 20260507214014 | 14 | 32 | 4.8 | 9.7 | 0.00 | 0.05 | 0.05 | 39 | 1012.3 |
| 20260507213510 | 15 | 346 | 8.0 | 11.3 | 0.00 | 0.05 | 0.05 | 37 | 1012.5 |
| 20260507213007 | 13 | 327 | 1.6 | 8.0 | 0.00 | 0.05 | 0.05 | 42 | 1012.3 |
| 20260507212502 | 14 | 348 | 9.7 | 11.3 | 0.00 | 0.05 | 0.05 | 42 | 1012.5 |
| 20260507212000 | 15 | 0 | 8.0 | 19.3 | 0.00 | 0.05 | 0.05 | 41 | 1012.6 |
| 20260507211456 | 16 | 34 | 8.0 | 9.7 | 0.00 | 0.05 | 0.05 | 40 | 1012.7 |
| 20260507210953 | 16 | 229 | 4.8 | 8.0 | 0.00 | 0.05 | 0.05 | 37 | 1012.2 |
| 20260507210450 | 15 | 352 | 8.0 | 12.9 | 0.00 | 0.05 | 0.05 | 40 | 1012.2 |
| 20260507205947 | 15 | 25 | 8.0 | 14.5 | 0.00 | 0.05 | 0.05 | 40 | 1012.2 |
| 20260507205444 | 14 | 221 | 11.3 | 11.3 | 0.00 | 0.05 | 0.05 | 38 | 1012.0 |
| 20260507204940 | 14 | 249 | 6.4 | 9.7 | 0.00 | 0.05 | 0.05 | 40 | 1012.0 |
| 20260507204436 | 15 | 13 | 3.2 | 14.5 | 0.00 | 0.05 | 0.05 | 37 | 1012.4 |
| 20260507203934 | 16 | 254 | 6.4 | 12.9 | 0.00 | 0.05 | 0.05 | 36 | 1012.5 |
| 20260507203431 | 15 | 352 | 3.2 | 8.0 | 0.00 | 0.05 | 0.05 | 36 | 1012.4 |
| 20260507202928 | 15 | 321 | 11.3 | 14.5 | 0.00 | 0.05 | 0.05 | 40 | 1012.3 |
| 20260507202419 | 15 | 111 | 3.2 | 9.7 | 0.00 | 0.05 | 0.05 | 39 | 1012.4 |
| 20260507201914 | 14 | 242 | 12.9 | 20.9 | 0.00 | 0.05 | 0.05 | 43 | 1012.7 |
| 20260507201410 | 15 | 27 | 9.7 | 19.3 | 0.00 | 0.05 | 0.05 | 41 | 1012.6 |
| 20260507200907 | 15 | 342 | 8.0 | 27.4 | 0.00 | 0.05 | 0.05 | 43 | 1012.5 |
| 20260507200403 | 15 | 352 | 6.4 | 22.5 | 0.00 | 0.05 | 0.05 | 41 | 1012.8 |
| 20260507195859 | 15 | 278 | 4.8 | 17.7 | 0.00 | 0.05 | 0.05 | 40 | 1012.8 |
| 20260507195356 | 15 | 226 | 6.4 | 19.3 | 0.00 | 0.05 | 0.05 | 43 | 1013.0 |
| 20260507194853 | 15 | 264 | 4.8 | 12.9 | 0.00 | 0.05 | 0.05 | 38 | 1012.9 |
| 20260507194350 | 16 | 238 | 12.9 | 16.1 | 0.00 | 0.05 | 0.05 | 41 | 1012.8 |
| 20260507193846 | 16 | 354 | 3.2 | 20.9 | 0.00 | 0.05 | 0.05 | 38 | 1012.8 |
| 20260507193343 | 15 | 1 | 8.0 | 11.3 | 0.00 | 0.05 | 0.05 | 40 | 1013.0 |
| 20260507192839 | 14 | 106 | 4.8 | 8.0 | 0.00 | 0.05 | 0.05 | 42 | 1012.9 |
| 20260507192336 | 15 | 15 | 6.4 | 12.9 | 0.00 | 0.05 | 0.05 | 37 | 1013.1 |
| 20260507191832 | 13 | 40 | 6.4 | 12.9 | 0.00 | 0.05 | 0.05 | 46 | 1013.0 |
| 20260507191329 | 14 | 34 | 9.7 | 12.9 | 0.00 | 0.05 | 0.05 | 41 | 1012.8 |
| 20260507190826 | 15 | 357 | 9.7 | 19.3 | 0.00 | 0.05 | 0.05 | 42 | 1012.9 |
| 20260507190324 | 15 | 342 | 8.0 | 12.9 | 0.00 | 0.05 | 0.05 | 41 | 1012.7 |
| 20260507185823 | 15 | 16 | 16.1 | 19.3 | 0.00 | 0.05 | 0.05 | 39 | 1012.7 |
| 20260507185319 | 16 | 6 | 8.0 | 19.3 | 0.00 | 0.05 | 0.05 | 45 | 1013.0 |
| 20260507184816 | 15 | 23 | 4.8 | 19.3 | 0.00 | 0.05 | 0.05 | 40 | 1013.0 |
| 20260507184314 | 15 | 301 | 4.8 | 9.7 | 0.00 | 0.05 | 0.05 | 43 | 1013.2 |
| 20260507183811 | 14 | 180 | 3.2 | 12.9 | 0.00 | 0.05 | 0.05 | 43 | 1013.3 |
| 20260507183308 | 15 | 28 | 12.9 | 25.7 | 0.00 | 0.05 | 0.05 | 42 | 1013.2 |
| 20260507182805 | 15 | 11 | 11.3 | 14.5 | 0.00 | 0.05 | 0.05 | 43 | 1012.9 |
| 20260507182300 | 15 | 283 | 4.8 | 12.9 | 0.00 | 0.05 | 0.05 | 45 | 1013.1 |
| 20260507181757 | 15 | 24 | 4.8 | 9.7 | 0.00 | 0.05 | 0.05 | 45 | 1013.0 |
| 20260507181253 | 15 | 244 | 20.9 | 20.9 | 0.00 | 0.05 | 0.05 | 45 | 1013.2 |
| 20260507180750 | 15 | 28 | 6.4 | 9.7 | 0.00 | 0.05 | 0.05 | 44 | 1013.1 |
| 20260507180247 | 15 | 6 | 8.0 | 16.1 | 0.00 | 0.05 | 0.05 | 46 | 1013.2 |
| 20260507175742 | 15 | 248 | 8.0 | 17.7 | 0.00 | 0.05 | 0.05 | 43 | 1013.2 |
| 20260507175240 | 15 | 345 | 9.7 | 12.9 | 0.00 | 0.05 | 0.05 | 50 | 1013.1 |
| 20260507174737 | 14 | 264 | 3.2 | 19.3 | 0.00 | 0.05 | 0.05 | 45 | 1012.8 |
| 20260507174235 | 15 | 62 | 6.4 | 11.3 | 0.00 | 0.05 | 0.05 | 45 | 1013.1 |
| 20260507173733 | 15 | 24 | 9.7 | 14.5 | 0.00 | 0.05 | 0.05 | 46 | 1013.1 |
| 20260507173229 | 15 | 239 | 4.8 | 11.3 | 0.00 | 0.05 | 0.05 | 43 | 1013.3 |
| 20260507172726 | 14 | 20 | 0.0 | 8.0 | 0.00 | 0.05 | 0.05 | 44 | 1013.6 |
| 20260507172223 | 14 | 303 | 1.6 | 11.3 | 0.00 | 0.05 | 0.05 | 48 | 1013.4 |
| 20260507171722 | 15 | 15 | 8.0 | 16.1 | 0.00 | 0.05 | 0.05 | 50 | 1013.7 |
| 20260507171220 | 14 | 121 | 4.8 | 9.7 | 0.00 | 0.05 | 0.05 | 49 | 1013.5 |
| 20260507170717 | 13 | 85 | 3.2 | 8.0 | 0.00 | 0.05 | 0.05 | 50 | 1013.6 |
| 20260507170214 | 13 | 264 | 6.4 | 9.7 | 0.00 | 0.05 | 0.05 | 57 | 1014.1 |
| 20260507165709 | 13 | 359 | 11.3 | 14.5 | 0.00 | 0.05 | 0.05 | 49 | 1014.1 |
| 20260507165206 | 12 | 69 | 1.6 | 14.5 | 0.00 | 0.05 | 0.05 | 52 | 1014.1 |
| 20260507164702 | 13 | 213 | 4.8 | 9.7 | 0.00 | 0.05 | 0.05 | 54 | 1014.2 |
| 20260507164200 | 13 | 319 | 4.8 | 16.1 | 0.00 | 0.05 | 0.05 | 51 | 1014.3 |
| 20260507163656 | 14 | 257 | 8.0 | 20.9 | 0.00 | 0.05 | 0.05 | 53 | 1014.1 |
| 20260507163154 | 13 | 221 | 14.5 | 17.7 | 0.00 | 0.05 | 0.05 | 50 | 1014.4 |
| 20260507162650 | 12 | 305 | 4.8 | 17.7 | 0.00 | 0.05 | 0.05 | 52 | 1014.5 |
| 20260507162146 | 12 | 8 | 9.7 | 14.5 | 0.00 | 0.05 | 0.05 | 59 | 1014.5 |
| 20260507161642 | 12 | 336 | 4.8 | 8.0 | 0.00 | 0.05 | 0.05 | 54 | 1014.5 |
| 20260507161139 | 12 | 120 | 0.0 | 14.5 | 0.00 | 0.05 | 0.05 | 55 | 1014.4 |
| 20260507160636 | 13 | 31 | 11.3 | 16.1 | 0.00 | 0.05 | 0.05 | 55 | 1014.6 |
| 20260507160132 | 12 | 232 | 8.0 | 12.9 | 0.00 | 0.05 | 0.05 | 57 | 1014.6 |
| 20260507155627 | 12 | 233 | 8.0 | 14.5 | 0.00 | 0.05 | 0.05 | 53 | 1014.9 |
| 20260507155119 | 12 | 228 | 4.8 | 11.3 | 0.00 | 0.05 | 0.05 | 60 | 1014.5 |
| 20260507154616 | 12 | 221 | 9.7 | 17.7 | 0.00 | 0.05 | 0.05 | 60 | 1014.8 |
| 20260507154113 | 11 | 357 | 3.2 | 8.0 | 0.00 | 0.05 | 0.05 | 58 | 1014.6 |
| 20260507153609 | 11 | 43 | 4.8 | 9.7 | 0.00 | 0.05 | 0.05 | 60 | 1014.5 |
| 20260507153106 | 12 | 344 | 8.0 | 8.0 | 0.00 | 0.05 | 0.05 | 59 | 1014.6 |
| 20260507152602 | 12 | 310 | 1.6 | 6.4 | 0.00 | 0.05 | 0.05 | 59 | 1014.6 |
| 20260507152058 | 11 | 62 | 6.4 | 9.7 | 0.00 | 0.05 | 0.05 | 59 | 1014.8 |
| 20260507151554 | 11 | 108 | 0.0 | 3.2 | 0.00 | 0.05 | 0.05 | 65 | 1014.8 |
| 20260507151052 | 11 | 105 | 0.0 | 8.0 | 0.00 | 0.05 | 0.05 | 60 | 1014.8 |
| 20260507150549 | 11 | 168 | 3.2 | 6.4 | 0.00 | 0.05 | 0.05 | 63 | 1014.9 |
| 20260507150045 | 11 | 280 | 3.2 | 12.9 | 0.00 | 0.05 | 0.05 | 65 | 1015.0 |
| 20260507145540 | 12 | 224 | 11.3 | 14.5 | 0.00 | 0.05 | 0.05 | 61 | 1015.1 |
| 20260507145038 | 10 | 95 | 3.2 | 3.2 | 0.00 | 0.05 | 0.05 | 67 | 1015.1 |
| 20260507144534 | 12 | 251 | 11.3 | 14.5 | 0.00 | 0.05 | 0.05 | 67 | 1015.2 |
| 20260507144026 | 11 | 214 | 3.2 | 3.2 | 0.00 | 0.05 | 0.05 | 68 | 1015.3 |
| 20260507143523 | 10 | 53 | 3.2 | 4.8 | 0.00 | 0.05 | 0.05 | 72 | 1015.3 |
| 20260507143021 | 10 | 345 | 3.2 | 6.4 | 0.00 | 0.05 | 0.05 | 71 | 1015.5 |
| 20260507142515 | 11 | 18 | 1.6 | 4.8 | 0.00 | 0.05 | 0.05 | 71 | 1015.5 |
| 20260507142013 | 10 | 32 | 3.2 | 4.8 | 0.00 | 0.05 | 0.05 | 73 | 1015.8 |
| 20260507141509 | 10 | 53 | 4.8 | 4.8 | 0.00 | 0.05 | 0.05 | 72 | 1015.8 |
| 20260507141007 | 10 | 353 | 4.8 | 4.8 | 0.00 | 0.05 | 0.05 | 76 | 1015.7 |
| 20260507140502 | 10 | 353 | 3.2 | 3.2 | 0.00 | 0.05 | 0.05 | 78 | 1015.8 |
| 20260507140000 | 10 | 284 | 3.2 | 3.2 | 0.00 | 0.05 | 0.05 | 76 | 1015.8 |
| 20260507135456 | 10 | 88 | 1.6 | 3.2 | 0.00 | 0.05 | 0.05 | 77 | 1015.8 |
| 20260507134953 | 10 | 33 | 4.8 | 4.8 | 0.00 | 0.05 | 0.05 | 79 | 1016.1 |
| 20260507134450 | 10 | 263 | 4.8 | 4.8 | 0.00 | 0.05 | 0.05 | 77 | 1016.1 |
| 20260507133946 | 10 | 20 | 3.2 | 4.8 | 0.00 | 0.05 | 0.05 | 81 | 1016.2 |
| 20260507133442 | 9 | 121 | 3.2 | 4.8 | 0.00 | 0.05 | 0.05 | 79 | 1016.2 |
| 20260507132941 | 9 | 67 | 4.8 | 6.4 | 0.00 | 0.05 | 0.05 | 80 | 1016.1 |
| 20260507132437 | 9 | 4 | 3.2 | 4.8 | 0.00 | 0.05 | 0.05 | 80 | 1016.3 |
| 20260507131933 | 8 | 352 | 0.0 | 3.2 | 0.00 | 0.05 | 0.05 | 81 | 1016.4 |
| 20260507131430 | 9 | 61 | 6.4 | 6.4 | 0.00 | 0.05 | 0.05 | 80 | 1016.1 |
| 20260507130927 | 9 | 57 | 3.2 | 4.8 | 0.00 | 0.05 | 0.05 | 81 | 1016.0 |
| 20260507130424 | 9 | 310 | 0.0 | 3.2 | 0.00 | 0.05 | 0.05 | 82 | 1016.2 |
| 20260507125923 | 8 | 26 | 1.6 | 1.6 | 0.00 | 0.05 | 0.05 | 85 | 1016.1 |
| 20260507125421 | 8 | 38 | 1.6 | 3.2 | 0.00 | 0.05 | 0.05 | 84 | 1016.3 |
| 20260507124918 | 8 | 299 | 0.0 | 1.6 | 0.00 | 0.05 | 0.05 | 86 | 1016.4 |
| 20260507124414 | 8 | 326 | 0.0 | 3.2 | 0.00 | 0.05 | 0.05 | 87 | 1016.2 |
| 20260507123913 | 8 | 218 | 0.0 | 0.0 | 0.00 | 0.05 | 0.05 | 89 | 1016.5 |
| 20260507123409 | 8 | 29 | 0.0 | 1.6 | 0.00 | 0.05 | 0.05 | 90 | 1016.4 |
| 20260507122906 | 8 | 89 | 0.0 | 3.2 | 0.00 | 0.05 | 0.05 | 90 | 1016.4 |
| 20260507122401 | 8 | 120 | 0.0 | 3.2 | 0.00 | 0.05 | 0.05 | 90 | 1016.4 |
| 20260507121858 | 8 | 235 | 0.0 | 1.6 | 0.00 | 0.05 | 0.05 | 91 | 1016.6 |
| 20260507121353 | 8 | 269 | 0.0 | 0.0 | 0.00 | 0.05 | 0.05 | 93 | 1016.5 |
| 20260507120850 | 8 | 354 | 1.6 | 3.2 | 0.00 | 0.05 | 0.05 | 93 | 1016.3 |
| 20260507120346 | 8 | 269 | 0.0 | 1.6 | 0.00 | 0.05 | 0.05 | 94 | 1016.2 |
| 20260507115842 | 8 | 219 | 0.0 | 0.0 | 0.00 | 0.05 | 0.05 | 94 | 1016.2 |
| 20260507115338 | 7 | 224 | 0.0 | 0.0 | 0.00 | 0.05 | 0.05 | 94 | 1016.1 |
| 20260507114834 | 8 | 210 | 0.0 | 3.2 | 0.00 | 0.05 | 0.05 | 94 | 1016.3 |
| 20260507114331 | 8 | 210 | 3.2 | 3.2 | 0.00 | 0.05 | 0.05 | 95 | 1016.1 |
| 20260507113829 | 7 | 322 | 0.0 | 1.6 | 0.00 | 0.05 | 0.05 | 95 | 1016.0 |
| 20260507113326 | 7 | 283 | 0.0 | 0.0 | 0.00 | 0.05 | 0.05 | 95 | 1015.8 |
| 20260507112823 | 7 | 326 | 0.0 | 1.6 | 0.00 | 0.05 | 0.05 | 95 | 1015.8 |
| 20260507112320 | 7 | 256 | 0.0 | 0.0 | 0.00 | 0.05 | 0.05 | 95 | 1015.7 |
| 20260507111818 | 7 | 231 | 0.0 | 0.0 | 0.00 | 0.05 | 0.05 | 95 | 1016.0 |
| 20260507111314 | 7 | 269 | 0.0 | 1.6 | 0.00 | 0.05 | 0.05 | 95 | 1015.6 |
| 20260507110810 | 7 | 175 | 1.6 | 3.2 | 0.00 | 0.05 | 0.05 | 95 | 1015.5 |
| 20260507110307 | 7 | 225 | 0.0 | 3.2 | 0.00 | 0.05 | 0.05 | 95 | 1015.4 |
| 20260507105804 | 7 | 98 | 1.6 | 1.6 | 0.00 | 0.05 | 0.05 | 95 | 1015.5 |
| 20260507105300 | 7 | 326 | 0.0 | 3.2 | 0.00 | 0.05 | 0.05 | 95 | 1015.3 |
| 20260507104757 | 7 | 28 | 1.6 | 3.2 | 0.00 | 0.05 | 0.05 | 95 | 1015.4 |
| 20260507104254 | 7 | 307 | 0.0 | 1.6 | 0.00 | 0.05 | 0.05 | 95 | 1015.5 |
| 20260507103750 | 7 | 246 | 0.0 | 0.0 | 0.00 | 0.05 | 0.05 | 95 | 1015.5 |
| 20260507103246 | 7 | 293 | 1.6 | 3.2 | 0.00 | 0.05 | 0.05 | 95 | 1015.2 |
| 20260507102742 | 7 | 321 | 0.0 | 0.0 | 0.00 | 0.05 | 0.05 | 94 | 1015.0 |
| 20260507102234 | 7 | 48 | 0.0 | 1.6 | 0.00 | 0.05 | 0.05 | 94 | 1015.2 |
| 20260507101730 | 7 | 82 | 1.6 | 3.2 | 0.00 | 0.05 | 0.05 | 94 | 1015.0 |
| 20260507101225 | 7 | 150 | 0.0 | 3.2 | 0.00 | 0.05 | 0.05 | 94 | 1015.3 |
| 20260507100722 | 7 | 86 | 0.0 | 1.6 | 0.00 | 0.05 | 0.05 | 93 | 1015.3 |
| 20260507100221 | 7 | 194 | 1.6 | 4.8 | 0.00 | 0.05 | 0.05 | 93 | 1015.1 |
| 20260507095718 | 7 | 209 | 0.0 | 1.6 | 0.00 | 0.05 | 0.05 | 92 | 1014.9 |
| 20260507095215 | 7 | 119 | 0.0 | 0.0 | 0.00 | 0.05 | 0.05 | 91 | 1015.2 |
| 20260507094712 | 7 | 72 | 0.0 | 4.8 | 0.00 | 0.05 | 0.05 | 90 | 1015.0 |
| 20260507094209 | 7 | 84 | 0.0 | 4.8 | 0.00 | 0.05 | 0.05 | 89 | 1014.9 |
| 20260507093705 | 8 | 54 | 4.8 | 6.4 | 0.00 | 0.05 | 0.05 | 90 | 1014.9 |
| 20260507093204 | 8 | 83 | 4.8 | 4.8 | 0.00 | 0.05 | 0.05 | 89 | 1015.0 |
| 20260507092701 | 8 | 38 | 6.4 | 8.0 | 0.00 | 0.05 | 0.05 | 89 | 1015.0 |
| 20260507092157 | 8 | 19 | 6.4 | 8.0 | 0.00 | 0.05 | 0.05 | 89 | 1015.1 |
| 20260507091653 | 8 | 38 | 6.4 | 9.7 | 0.00 | 0.05 | 0.05 | 89 | 1015.0 |
| 20260507091150 | 8 | 44 | 9.7 | 11.3 | 0.00 | 0.05 | 0.05 | 91 | 1014.9 |
| 20260507090646 | 8 | 9 | 4.8 | 8.0 | 0.00 | 0.05 | 0.05 | 92 | 1014.9 |
| 20260507090143 | 8 | 27 | 4.8 | 9.7 | 0.00 | 0.05 | 0.05 | 92 | 1015.2 |
| 20260507085640 | 8 | 15 | 4.8 | 11.3 | 0.05 | 0.05 | 0.05 | 93 | 1015.0 |
| 20260507085137 | 8 | 12 | 9.7 | 12.9 | 0.05 | 0.05 | 0.05 | 95 | 1014.9 |
| 20260507084634 | 8 | 55 | 6.4 | 9.7 | 0.05 | 0.03 | 0.03 | 95 | 1014.7 |
| 20260507084130 | 8 | 358 | 4.8 | 4.8 | 0.05 | 0.03 | 0.03 | 95 | 1014.9 |
| 20260507083627 | 8 | 240 | 0.0 | 0.0 | 0.05 | 0.03 | 0.03 | 95 | 1015.0 |
| 20260507083124 | 8 | 147 | 0.0 | 0.0 | 0.05 | 0.03 | 0.03 | 95 | 1015.0 |
| 20260507082620 | 8 | 256 | 0.0 | 0.0 | 0.00 | 0.00 | 0.00 | 95 | 1015.1 |
| 20260507082116 | 8 | 221 | 0.0 | 0.0 | 0.00 | 0.00 | 0.00 | 95 | 1015.1 |
| 20260507081613 | 8 | 256 | 0.0 | 0.0 | 0.00 | 0.00 | 0.00 | 95 | 1015.0 |
| 20260507081110 | 8 | 127 | 1.6 | 1.6 | 0.00 | 0.00 | 0.00 | 95 | 1015.0 |
| 20260507080606 | 8 | 76 | 0.0 | 0.0 | 0.00 | 0.00 | 0.00 | 95 | 1014.8 |
| 20260507075557 | 8 | 113 | 0.0 | 1.6 | 0.00 | 0.00 | 0.00 | 95 | 1014.9 |
| 20260507075054 | 8 | 124 | 0.0 | 0.0 | 0.00 | 0.00 | 0.00 | 95 | 1014.8 |
| 20260507074551 | 8 | 89 | 0.0 | 0.0 | 0.00 | 0.00 | 0.00 | 95 | 1014.8 |
| 20260507074049 | 8 | 212 | 0.0 | 3.2 | 0.00 | 0.00 | 0.00 | 95 | 1015.1 |
| 20260507073545 | 8 | 233 | 0.0 | 1.6 | 0.00 | 0.00 | 0.00 | 95 | 1015.0 |
| 20260507073042 | 8 | 174 | 0.0 | 0.0 | 0.00 | 0.00 | 0.00 | 95 | 1014.8 |
| 20260507072539 | 8 | 49 | 0.0 | 0.0 | 0.00 | 0.00 | 0.00 | 95 | 1014.9 |
| 20260507072036 | 8 | 76 | 0.0 | 0.0 | 0.00 | 0.00 | 0.00 | 95 | 1014.7 |
| 20260507071534 | 8 | 228 | 0.0 | 0.0 | 0.00 | 0.00 | 0.00 | 95 | 1014.9 |
| 20260507071030 | 8 | 228 | 0.0 | 0.0 | 0.00 | 0.00 | 0.00 | 95 | 1015.0 |
| 20260507070527 | 8 | 228 | 0.0 | 0.0 | 0.00 | 0.00 | 0.00 | 95 | 1015.0 |
| 20260507070024 | 8 | 228 | 0.0 | 0.0 | 0.00 | 0.00 | 0.00 | 95 | 1014.8 |
| 20260507065520 | 8 | 197 | 0.0 | 3.2 | 0.00 | 0.00 | 0.00 | 95 | 1015.0 |
| 20260507065018 | 8 | 238 | 3.2 | 3.2 | 0.00 | 0.00 | 0.00 | 95 | 1015.0 |
| 20260507064516 | 8 | 124 | 0.0 | 0.0 | 0.00 | 0.00 | 0.00 | 95 | 1014.9 |
| 20260507064014 | 8 | 110 | 0.0 | 1.6 | 0.00 | 0.00 | 0.00 | 96 | 1014.6 |
| 20260507063510 | 8 | 235 | 0.0 | 3.2 | 0.00 | 0.00 | 0.00 | 96 | 1014.8 |
| 20260507063008 | 9 | 252 | 1.6 | 3.2 | 0.00 | 0.00 | 0.00 | 96 | 1014.9 |
| 20260507062504 | 9 | 107 | 0.0 | 0.0 | 0.00 | 0.00 | 0.00 | 96 | 1014.9 |
| 20260507062002 | 9 | 157 | 0.0 | 4.8 | 0.00 | 0.00 | 0.00 | 96 | 1015.0 |
| 20260507061459 | 9 | 246 | 0.0 | 3.2 | 0.05 | 0.00 | 0.00 | 95 | 1015.0 |
| 20260507060958 | 9 | 113 | 0.0 | 0.0 | 0.05 | 0.00 | 0.00 | 95 | 1015.2 |
| 20260507060454 | 9 | 113 | 0.0 | 0.0 | 0.00 | 0.00 | 0.00 | 95 | 1015.4 |
| 20260507055951 | 9 | 223 | 0.0 | 1.6 | 0.00 | 0.00 | 0.00 | 95 | 1015.4 |
| 20260507055446 | 9 | 221 | 1.6 | 3.2 | 0.00 | 0.00 | 0.00 | 95 | 1015.4 |
| 20260507054943 | 9 | 22 | 0.0 | 0.0 | 0.00 | 0.00 | 0.00 | 95 | 1015.4 |
| 20260507054439 | 9 | 55 | 0.0 | 1.6 | 0.00 | 0.00 | 0.00 | 95 | 1015.6 |
| 20260507053937 | 9 | 142 | 0.0 | 0.0 | 0.00 | 0.00 | 0.00 | 95 | 1015.3 |
| 20260507053434 | 9 | 224 | 0.0 | 0.0 | 0.00 | 0.00 | 0.00 | 95 | 1015.7 |
| 20260507052932 | 9 | 233 | 0.0 | 3.2 | 0.00 | 0.00 | 0.00 | 95 | 1015.5 |
| 20260507052430 | 9 | 246 | 3.2 | 4.8 | 0.00 | 0.00 | 0.00 | 95 | 1015.7 |
| 20260507051927 | 9 | 298 | 3.2 | 4.8 | 0.00 | 0.00 | 0.00 | 95 | 1015.6 |
| 20260507051424 | 9 | 222 | 0.0 | 1.6 | 0.00 | 0.00 | 0.00 | 95 | 1015.6 |
| 20260507050921 | 9 | 130 | 0.0 | 1.6 | 0.00 | 0.00 | 0.00 | 94 | 1015.6 |
| 20260507050418 | 9 | 214 | 0.0 | 3.2 | 0.00 | 0.00 | 0.00 | 94 | 1015.8 |
| 20260507045915 | 9 | 229 | 1.6 | 3.2 | 0.00 | 0.00 | 0.00 | 94 | 1015.7 |
| 20260507045411 | 9 | 241 | 1.6 | 3.2 | 0.00 | 0.00 | 0.00 | 94 | 1015.6 |
| 20260507044908 | 9 | 119 | 0.0 | 0.0 | 0.00 | 0.00 | 0.00 | 94 | 1015.7 |
| 20260507044405 | 9 | 159 | 0.0 | 3.2 | 0.00 | 0.00 | 0.00 | 93 | 1016.0 |
| 20260507043901 | 9 | 131 | 0.0 | 0.0 | 0.00 | 0.00 | 0.00 | 93 | 1015.5 |
| 20260507043357 | 9 | 352 | 3.2 | 4.8 | 0.00 | 0.00 | 0.00 | 93 | 1015.6 |
| 20260507042854 | 9 | 18 | 3.2 | 4.8 | 0.00 | 0.00 | 0.00 | 93 | 1015.6 |
| 20260507042350 | 9 | 57 | 1.6 | 4.8 | 0.00 | 0.00 | 0.00 | 93 | 1015.4 |
| 20260507041846 | 9 | 5 | 0.0 | 4.8 | 0.00 | 0.00 | 0.00 | 92 | 1015.4 |
| 20260507041343 | 9 | 333 | 3.2 | 4.8 | 0.00 | 0.00 | 0.00 | 92 | 1015.6 |
| 20260507040841 | 10 | 296 | 0.0 | 3.2 | 0.00 | 0.00 | 0.00 | 91 | 1015.5 |
| 20260507040336 | 10 | 16 | 0.0 | 3.2 | 0.00 | 0.00 | 0.00 | 91 | 1015.4 |
| 20260507035833 | 10 | 342 | 3.2 | 8.0 | 0.00 | 1.55 | 1.55 | 90 | 1015.2 |
| 20260507035328 | 10 | 88 | 6.4 | 11.3 | 0.00 | 1.55 | 1.55 | 90 | 1015.4 |
| 20260507034826 | 10 | 88 | 9.7 | 12.9 | 0.00 | 1.55 | 1.55 | 90 | 1015.5 |
| 20260507034323 | 10 | 55 | 11.3 | 11.3 | 0.00 | 1.55 | 1.55 | 91 | 1015.3 |
| 20260507033821 | 10 | 44 | 4.8 | 8.0 | 0.05 | 1.55 | 1.55 | 92 | 1015.3 |
| 20260507033318 | 10 | 13 | 8.0 | 14.5 | 0.05 | 1.55 | 1.55 | 91 | 1015.3 |
| 20260507032815 | 10 | 42 | 6.4 | 8.0 | 0.00 | 1.55 | 1.55 | 92 | 1015.5 |
| 20260507032311 | 10 | 3 | 4.8 | 6.4 | 0.00 | 1.55 | 1.55 | 91 | 1015.0 |
| 20260507031808 | 10 | 67 | 8.0 | 9.7 | 0.00 | 1.55 | 1.55 | 92 | 1015.3 |
| 20260507031305 | 10 | 41 | 8.0 | 16.1 | 0.00 | 1.55 | 1.55 | 92 | 1015.4 |
| 20260507030801 | 10 | 45 | 12.9 | 20.9 | 0.05 | 1.55 | 1.55 | 93 | 1016.3 |
| 20260507030259 | 10 | 6 | 8.0 | 11.3 | 0.05 | 1.55 | 1.55 | 93 | 1015.4 |
| 20260507025756 | 10 | 17 | 4.8 | 14.5 | 0.00 | 1.52 | 1.52 | 93 | 1015.3 |
| 20260507025253 | 10 | 55 | 9.7 | 11.3 | 0.05 | 1.52 | 1.52 | 93 | 1014.3 |
| 20260507024751 | 10 | 73 | 6.4 | 12.9 | 0.05 | 1.52 | 1.52 | 94 | 1014.5 |
| 20260507024248 | 10 | 62 | 4.8 | 14.5 | 0.00 | 1.52 | 1.52 | 94 | 1014.7 |
| 20260507023743 | 10 | 65 | 6.4 | 8.0 | 0.05 | 1.52 | 1.52 | 95 | 1015.1 |